Location: Newark
(57.1691°N, 93.4410°E)
Time: 08:42:14
(UTC+00:00)

ISS - Visible Passes

Search period start: 01 October 2020 00:00
Search period end: 11 October 2020 00:00
Orbit: 419 x 421 km, 51.6° (Epoch: 01 October)

Date Brightness Start Highest point End Pass type
(mag) Time Alt. Az. Time Alt. Az. Time Alt. Az.
01 Oct -1.8 12:52:13 10° WSW 12:54:52 21° SSW 12:56:47 14° SSE visible
02 Oct -2.0 12:04:53 10° WSW 12:07:43 25° SSW 12:10:34 10° SE visible
02 Oct -1.0 13:43:01 10° SW 13:43:43 10° SW 13:44:20 10° SSW visible
03 Oct -1.1 12:54:51 10° WSW 12:56:40 14° SSW 12:58:28 10° S visible
04 Oct -1.3 12:07:13 10° WSW 12:09:33 18° SSW 12:11:53 10° SSE visible
06 Oct -0.7 12:10:37 10° SW 12:11:13 10° SW 12:11:49 10° SSW visible
